DW8548 Weather Reports


time (UTC)temp
F
wind
direction
speed
knots
gust
knots
rain 1hr
in
rain 24hr
in
rain mn
in
humidity
%
barometer
mb
20260831200110 49 0 0.0 0.0 0.00 0.00 0.00 87 1022.4
20260831194642 50 0 0.0 0.0 0.00 0.00 0.00 87 1022.4
20260831193106 49 0 0.0 0.0 0.00 0.00 0.00 86 1022.3
20260831191607 50 0 0.0 0.0 0.00 0.00 0.00 85 1022.3
20260831190109 51 0 0.0 0.0 0.00 0.00 0.00 84 1022.3
20260831184607 51 0 0.0 0.0 0.00 0.00 0.00 82 1022.4
20260831183110 52 0 0.0 0.9 0.00 0.00 0.00 81 1022.4
20260831181610 53 0 0.0 0.9 0.00 0.00 0.00 80 1022.5
20260831180126 53 0 0.0 1.7 0.00 0.00 0.00 79 1022.6
20260831174603 54 0 0.0 2.6 0.00 0.00 0.00 79 1022.6
20260831173104 53 0 0.0 2.6 0.00 0.00 0.00 79 1022.6
20260831171605 54 0 0.0 0.9 0.00 0.00 0.00 79 1022.7
20260831164604 54 171 0.0 3.5 0.00 0.00 0.00 79 1022.8
20260831163103 54 0 0.9 3.5 0.00 0.00 0.00 79 1022.8
20260831161606 54 131 0.9 4.3 0.00 0.00 0.00 79 1022.9
20260831160106 54 0 0.0 6.1 0.00 0.00 0.00 79 1022.9
20260831154634 54 0 0.9 5.2 0.00 0.00 0.00 81 1023.0
20260831153108 53 236 0.9 9.6 0.00 0.00 0.00 84 1023.1
20260831151622 53 127 0.9 8.7 0.00 0.00 0.00 86 1023.1
20260831150109 54 209 2.6 7.8 0.00 0.00 0.00 88 1023.0
20260831144607 54 125 1.7 12.2 0.00 0.00 0.00 89 1022.9
20260831143108 56 72 1.7 5.2 0.00 0.00 0.00 89 1022.8
20260831141606 57 0 0.9 6.1 0.00 0.00 0.00 90 1022.4
20260831140106 57 195 0.9 7.0 0.00 0.00 0.00 89 1022.2
20260831134606 57 211 1.7 7.8 0.00 0.00 0.00 89 1022.0
20260831133108 58 0 0.9 6.1 0.00 0.00 0.00 89 1021.9
20260831131614 58 130 1.7 7.8 0.00 0.00 0.00 89 1021.5
20260831130114 59 264 1.7 7.8 0.00 0.00 0.00 89 1021.2
20260831124609 59 187 0.9 7.8 0.00 0.00 0.00 89 1021.0
20260831123104 60 0 0.0 3.5 0.00 0.00 0.00 89 1020.7
20260831121604 61 0 0.9 3.5 0.00 0.00 0.00 88 1020.6
20260831120114 62 236 0.9 6.1 0.00 0.00 0.00 86 1020.5
20260831114611 63 240 2.6 9.6 0.00 0.00 0.00 80 1020.3
20260831113104 64 250 0.9 7.0 0.00 0.00 0.00 78 1020.1
20260831111600 64 294 1.7 6.1 0.00 0.00 0.00 77 1020.0
20260831110111 64 279 0.9 6.1 0.00 0.00 0.00 78 1019.9
20260831104613 64 272 1.7 4.3 0.00 0.00 0.00 77 1019.9
20260831103104 64 248 0.0 7.0 0.00 0.00 0.00 77 1019.8
20260831101604 64 259 1.7 7.0 0.00 0.00 0.00 76 1019.7
20260831100124 64 247 1.7 7.0 0.00 0.00 0.00 77 1019.6
20260831094602 64 256 1.7 3.5 0.00 0.00 0.00 78 1019.5
20260831093108 65 273 1.7 7.0 0.00 0.00 0.00 77 1019.3
20260831091604 65 318 0.9 4.3 0.00 0.00 0.00 77 1019.0
20260831090107 66 227 1.7 7.8 0.00 0.00 0.00 74 1018.9
20260831084611 66 255 1.7 6.1 0.00 0.00 0.00 71 1018.8
20260831083106 67 331 1.7 5.2 0.00 0.00 0.00 67 1018.7
20260831081602 68 271 0.9 7.8 0.00 0.00 0.00 66 1018.6
20260831080108 69 244 3.5 8.7 0.00 0.00 0.00 64 1018.8
20260831074605 68 304 1.7 7.0 0.00 0.00 0.00 67 1018.8
20260831073104 68 282 2.6 7.8 0.00 0.00 0.00 69 1018.8
20260831071558 69 266 3.5 9.6 0.00 0.00 0.00 68 1018.9
20260831070115 70 257 2.6 7.0 0.00 0.00 0.00 64 1018.7
20260831064607 70 252 2.6 9.6 0.00 0.00 0.00 66 1018.7
20260831063105 70 246 1.7 7.8 0.00 0.00 0.00 66 1018.6
20260831061604 70 292 2.6 8.7 0.00 0.00 0.00 66 1018.5
20260831060109 71 225 2.6 7.0 0.00 0.00 0.00 67 1018.4
20260831054606 72 291 1.7 5.2 0.00 0.00 0.00 66 1018.3
20260831053112 71 298 2.6 7.8 0.00 0.00 0.00 65 1018.2
20260831051604 70 250 2.6 7.8 0.00 0.00 0.00 68 1018.4
20260831050115 69 261 2.6 9.6 0.00 0.00 0.00 69 1018.5
20260831044612 70 308 1.7 7.8 0.00 0.00 0.00 72 1018.5
20260831043102 70 275 1.7 7.0 0.00 0.00 0.00 71 1018.3
20260831041605 71 337 1.7 7.0 0.00 0.00 0.00 70 1018.3
20260831040107 70 0 1.7 7.0 0.00 0.00 0.00 68 1018.4
20260831034608 70 273 0.9 6.1 0.00 0.00 0.00 72 1018.5
20260831033107 70 246 1.7 5.2 0.00 0.00 0.00 72 1018.6
20260831031604 70 312 0.9 7.0 0.00 0.00 0.00 72 1018.9
20260831030108 68 48 0.9 7.0 0.00 0.00 0.00 75 1018.8
20260831024626 68 327 0.9 5.2 0.00 0.00 0.00 74 1018.8
20260831023110 69 297 1.7 7.0 0.00 0.00 0.00 75 1018.9
20260831021605 67 336 1.7 6.1 0.00 0.00 0.00 76 1018.6
20260831020111 67 327 0.9 6.1 0.00 0.00 0.00 77 1018.6
20260831014624 66 273 0.9 4.3 0.00 0.00 0.00 77 1018.8
20260831013100 67 0 0.0 3.5 0.00 0.00 0.00 78 1018.8
20260831011617 66 304 0.9 3.5 0.00 0.00 0.00 79 1018.9
20260831010104 65 333 0.9 4.3 0.00 0.00 0.00 81 1018.8
20260831004604 64 263 0.0 2.6 0.00 0.00 0.00 86 1018.8
20260831003106 63 268 0.0 2.6 0.00 0.00 0.00 90 1018.8
20260831001605 61 0 0.0 0.0 0.00 0.00 0.00 93 1018.7
20260831000108 60 0 0.0 0.0 0.00 0.00 0.00 94 1018.6
20260830234607 58 0 0.0 0.0 0.00 0.00 0.00 93 1018.5
20260830233107 57 0 0.0 0.9 0.00 0.00 0.00 94 1018.5
20260830231610 56 0 0.0 0.0 0.00 0.00 0.00 93 1018.2
20260830230109 56 0 0.0 0.0 0.00 0.00 0.00 93 1018.2
20260830224635 56 0 0.0 0.0 0.00 0.00 0.00 93 1018.1
20260830223104 56 0 0.0 0.9 0.00 0.00 0.00 94 1018.0
20260830221620 55 0 0.0 0.0 0.00 0.00 0.00 93 1017.8
20260830220134 56 0 0.0 0.0 0.00 0.00 0.00 93 1017.7
20260830214606 56 0 0.0 0.0 0.00 0.00 0.00 93 1017.6
20260830213104 56 0 0.0 0.0 0.00 0.00 0.00 93 1017.4
20260830211605 57 0 0.0 0.0 0.00 0.00 0.00 93 1017.2
20260830210105 56 0 0.0 0.0 0.00 0.00 0.00 93 1017.3
20260830204606 57 0 0.0 0.0 0.00 0.00 0.00 93 1017.2
20260830203105 57 0 0.0 0.0 0.00 0.00 0.00 93 1017.2
20260830201606 57 0 0.0 0.0 0.00 0.00 0.00 93 1017.4